Location: Kuppenheim
(48.8299°N, 8.2568°E)
Time: 21:05:55
(UTC+00:00)

Cosmos 990 Rocket - Pass Details

Date: 21 October 2021
Orbit: 746 x 769 km, 74.0° (Epoch: 27 November)

Event Time Altitude Azimuth Distance (km) Brightness Sun altitude
Rises 17:02:20 0° 258° (WSW) 3,219 9.9 -6.7°
Reaches altitude 10° 17:05:43 10° 280° (W) 2,302 7.9 -7.3°
Maximum altitude 17:08:46 15° 316° (NW) 1,959 6.6 -7.8°
Drops below altitude 10° 17:11:50 10° 352° (N) 2,317 6.5 -8.3°
Sets 17:15:16 0° 15° (NNE) 3,250 7.0 -8.8°
